This demonstration page uses our WeatherBlox Daily Observations layout. Learn more.

Hourly Observations for September 5, 2016

Temp ( °F °C ) Dew Point ( °F °C ) Humidity (%) Winds ( mph kmh ) Pressure ( in mb ) Visibility ( mi km ) Precip ( " mm )
12:15 am 00:15 Clear 77 24.8 65 18.6 69 69 S 16 26 29.65 1004 10 16.09344 0 0
12:35 am 00:35 Clear 77 24.8 65 18.6 69 69 S 15 24 29.65 1004 10 16.09344 0 0
12:55 am 00:55 Clear 76 24.5 65 18.6 70 70 S 18 30 29.68 1005 10 16.09344 0 0
1:15 am 01:15 Clear 75 24 65 18.5 71 71 S 16 26 29.68 1005 10 16.09344 0 0
1:35 am 01:35 Clear 75 23.8 65 18.5 72 72 S 14 22 29.68 1005 10 16.09344 0 0
1:36 am 01:36 Clear 75 24 64 18 69 69 S 16 26 29.68 1005 10 16.09344 0 0
1:55 am 01:55 Clear 74 23.6 65 18.5 73 73 S 15 24 29.68 1005 10 16.09344 0 0
2:15 am 02:15 Clear 74 23.2 65 18.5 75 75 S 13 20 29.68 1005 10 16.09344 0 0
2:35 am 02:35 Clear 74 23.1 65 18.5 75 75 S 14 22 29.68 1005 10 16.09344 0 0
2:55 am 02:55 Clear 74 23.1 65 18.5 75 75 S 15 24 29.68 1005 10 16.09344 0 0
3:15 am 03:15 Clear 73 23 65 18.5 76 76 S 15 24 29.68 1005 10 16.09344 0 0
3:35 am 03:35 Clear 73 22.9 66 18.7 77 77 S 13 20 29.68 1005 10 16.09344 0 0
3:55 am 03:55 Clear 73 22.7 66 18.7 78 78 S 12 19 29.68 1005 10 16.09344 0 0
4:15 am 04:15 Clear 73 22.7 66 18.8 79 79 S 14 22 29.68 1005 10 16.09344 0 0
4:35 am 04:35 Clear 73 22.5 66 18.8 80 80 S 12 19 29.68 1005 10 16.09344 0 0
4:55 am 04:55 Clear 72 22.3 66 18.8 81 81 S 12 19 29.68 1005 10 16.09344 0 0
5:15 am 05:15 Clear 72 22.2 66 18.8 81 81 S 9 15 29.68 1005 10 16.09344 0 0
5:35 am 05:35 Clear 71 21.9 66 18.8 83 83 S 10 17 29.68 1005 10 16.09344 0 0
5:55 am 05:55 Clear 71 21.7 66 18.8 84 84 S 10 17 29.68 1005 10 16.09344 0 0
6:15 am 06:15 Clear 71 21.5 66 18.7 84 84 S 10 17 29.68 1005 10 16.09344 0 0
6:35 am 06:35 Clear 70 21.3 66 18.8 86 86 S 10 17 29.68 1005 10 16.09344 0 0
6:55 am 06:55 Clear 70 21 66 18.7 87 87 S 7 11 29.68 1005 10 16.09344 0 0
7:15 am 07:15 Sunny 69 20.8 66 18.7 88 88 S 8 13 29.71 1006 10 16.09344 0 0
7:35 am 07:35 Sunny 70 21 66 18.7 87 87 S 10 17 29.68 1005 10 16.09344 0 0
7:55 am 07:55 Sunny 70 21.2 66 18.8 86 86 S 13 20 29.68 1005 10 16.09344 0 0
8:15 am 08:15 Sunny 71 21.5 66 19 86 86 S 12 19 29.68 1005 10 16.09344 0 0
8:35 am 08:35 Sunny 72 22.2 66 19 82 82 S 12 19 29.68 1005 10 16.09344 0 0
8:55 am 08:55 Sunny 73 23 67 19.2 79 79 S 10 17 29.68 1005 10 16.09344 0 0
9:15 am 09:15 Sunny 74 23.6 66 19.1 76 76 S 14 22 29.68 1005 10 16.09344 0 0
9:35 am 09:35 Sunny 76 24.3 66 19 72 72 S 17 28 29.68 1005 10 16.09344 0 0
9:55 am 09:55 Sunny 77 25 66 18.8 69 69 SSW 20 31 29.65 1004 10 16.09344 0 0
10:15 am 10:15 Sunny 78 25.4 65 18.6 66 66 S 20 31 29.65 1004 10 16.09344 0 0
10:35 am 10:35 Sunny 79 26 65 18.3 63 63 S 20 31 29.68 1005 10 16.09344 0 0
10:55 am 10:55 Sunny 80 26.7 65 18.3 60 60 S 21 33 29.68 1005 10 16.09344 0 0
11:15 am 11:15 Sunny 81 27.3 65 18.5 59 59 S 17 28 29.68 1005 10 16.09344 0 0
11:35 am 11:35 Sunny 82 27.7 65 18.6 58 58 S 18 30 29.68 1005 10 16.09344 0 0
11:55 am 11:55 Sunny 83 28.5 66 19 56 56 S 17 28 29.68 1005 10 16.09344 0 0
12:35 pm 12:35 Sunny 84 28.9 65 18.5 53 53 SSW 21 33 29.65 1004 10 16.09344 0 0
12:55 pm 12:55 Sunny 85 29.4 65 18.5 52 52 S 17 28 29.65 1004 10 16.09344 0 0
1:15 pm 13:15 Sunny 86 29.9 66 19 52 52 SSW 17 28 29.65 1004 10 16.09344 0 0
1:35 pm 13:35 Sunny 86 30.1 66 18.8 51 51 S 16 26 29.65 1004 10 16.09344 0 0
1:55 pm 13:55 Sunny 87 30.4 66 18.8 50 50 S 17 28 29.65 1004 10 16.09344 0 0
2:15 pm 14:15 Sunny 87 30.6 65 18.6 49 49 S 20 31 29.62 1003 10 16.09344 0 0
2:35 pm 14:35 Sunny 88 31.1 65 18.5 47 47 S 16 26 29.62 1003 10 16.09344 0 0
2:55 pm 14:55 Sunny 89 31.5 65 18.2 45 45 S 21 33 29.62 1003 10 16.09344 0 0
3:15 pm 15:15 Sunny 89 31.6 65 18.5 46 46 SSW 18 30 29.62 1003 10 16.09344 0 0
3:35 pm 15:35 Sunny 89 31.9 66 18.9 46 46 S 21 33 29.62 1003 10 16.09344 0 0
3:55 pm 15:55 Sunny 90 32 65 18.5 45 45 S 22 35 29.62 1003 10 16.09344 0 0
4:15 pm 16:15 Sunny 90 32.1 65 18.6 45 45 S 15 24 29.62 1003 10 16.09344 0 0
4:35 pm 16:35 Sunny 90 32.2 65 18.5 44 44 S 16 26 29.62 1003 10 16.09344 0 0
4:55 pm 16:55 Sunny 91 32.6 66 18.7 44 44 S 21 33 29.59 1002 10 16.09344 0 0
5:15 pm 17:15 Partly Cloudy 91 32.5 65 18.5 43 43 S 18 30 29.59 1002 10 16.09344 0 0
5:35 pm 17:35 Partly Cloudy 90 32.1 66 18.7 45 45 S 13 20 29.62 1003 10 16.09344 0 0
5:55 pm 17:55 Partly Cloudy 89 31.9 66 18.9 46 46 S 14 22 29.62 1003 10 16.09344 0 0
6:15 pm 18:15 Partly Cloudy 87 30.6 67 19.3 51 51 S 12 19 29.62 1003 10 16.09344 0 0
6:35 pm 18:35 Partly Cloudy 86 30.2 66 18.7 50 50 S 10 17 29.62 1003 10 16.09344 0 0
6:55 pm 18:55 Partly Cloudy 85 29.2 67 19.2 55 55 SSE 7 11 29.62 1003 10 16.09344 0 0
7:15 pm 19:15 Partly Cloudy 82 27.9 68 19.8 61 61 SSE 7 11 29.65 1004 10 16.09344 0 0
7:35 pm 19:35 Partly Cloudy 82 27.7 68 20 63 63 SSE 10 17 29.65 1004 10 16.09344 0 0
7:55 pm 19:55 Sunny 82 27.5 67 19.6 62 62 SE 9 15 29.65 1004 10 16.09344 0 0
8:15 pm 20:15 Clear 80 26.5 68 20 68 68 SE 7 11 29.65 1004 10 16.09344 0 0
8:35 pm 20:35 Clear with Nearby Thunderstorms 79 26.1 67 19.7 68 68 SE 8 13 29.68 1005 10 16.09344 0 0
8:55 pm 20:55 Clear 79 25.9 67 19.5 68 68 SE 9 15 29.65 1004 10 16.09344 0 0
9:15 pm 21:15 Clear 78 25.3 67 19.3 69 69 SE 8 13 29.68 1005 10 16.09344 0 0
9:35 pm 21:35 Clear 77 24.8 67 19.2 71 71 SE 7 11 29.71 1006 10 16.09344 0 0
9:55 pm 21:55 Clear with Nearby Thunderstorms 78 25.5 66 19 67 67 SSE 12 19 29.68 1005 10 16.09344 0 0
10:15 pm 22:15 Partly Cloudy 79 25.9 65 18.5 64 64 SSE 12 19 29.71 1006 10 16.09344 0 0
10:35 pm 22:35 Partly Cloudy 78 25.8 65 18.5 64 64 WSW 5 7 29.71 1006 10 16.09344 0 0
10:55 pm 22:55 Clear 76 24.6 64 17.5 65 65 Calm 29.74 1007 10 16.09344 0 0
11:15 pm 23:15 Clear 76 24.7 65 18.1 67 67 Calm 29.74 1007 10 16.09344 0 0
11:35 pm 23:35 Clear 75 23.8 65 18.4 72 72 Calm 29.74 1007 10 16.09344 0 0
11:55 pm 23:55 Clear 76 24.6 65 18.5 69 69 SE 5 7 29.74 1007 10 16.09344 0 0

Powered by AerisWeather